DW7220 Weather Reports


Display with metric or nautical units.
time (UTC)temp
F
wind
direction
speed
MPH
gust
MPH
rain 1hr
in
rain 24hr
in
rain mn
in
humidity
%
barometer
mb
20260510150111 87 160 3.0 10.0 0.00 0.00 0.00 67 1016.1
20260510144517 86 255 4.0 12.0 0.00 0.00 0.00 68 1016.1
20260510143037 85 130 4.0 12.0 0.00 0.00 0.00 69 1016.0
20260510141603 85 160 4.0 10.0 0.00 0.00 0.00 70 1016.0
20260510140112 84 184 4.0 9.0 0.00 0.00 0.00 73 1015.9
20260510134521 83 214 2.0 10.0 0.00 0.00 0.00 75 1016.1
20260510133048 82 165 2.0 10.0 0.00 0.00 0.00 76 1015.9
20260510131610 82 214 3.0 10.0 0.00 0.00 0.00 76 1015.9
20260510130024 80 127 1.0 10.0 0.00 0.00 0.00 84 1015.6
20260510124548 77 226 2.0 7.0 0.00 0.00 0.00 89 1015.7
20260510123102 76 194 2.0 6.0 0.00 0.00 0.00 94 1015.5
20260510121615 75 155 1.0 4.0 0.00 0.00 0.00 96 1015.3
20260510120016 74 223 1.0 3.0 0.00 0.00 0.00 97 1015.2
20260510114534 73 128 0.0 3.0 0.00 0.00 0.00 97 1015.0
20260510113055 73 167 0.0 3.0 0.00 0.00 0.00 98 1014.9
20260510111601 73 178 0.0 3.0 0.00 0.00 0.00 97 1014.7
20260510110006 72 245 0.0 1.0 0.00 0.00 0.00 97 1014.5
20260510104522 72 245 0.0 2.0 0.00 0.00 0.00 97 1014.4
20260510103040 72 231 0.0 2.0 0.00 0.00 0.00 97 1014.2
20260510101603 72 173 0.0 1.0 0.00 0.00 0.00 97 1014.0
20260510100114 73 250 0.0 0.0 0.00 0.00 0.00 97 1013.7
20260510094513 73 250 0.0 0.0 0.00 0.00 0.00 97 1013.6
20260510093027 73 250 0.0 0.0 0.00 0.00 0.00 97 1013.6
20260510091541 73 245 0.0 0.0 0.00 0.00 0.00 97 1013.6
20260510090111 73 246 0.0 0.0 0.00 0.00 0.00 97 1013.5
20260510084510 73 141 0.0 0.0 0.00 0.00 0.00 96 1013.5
20260510083036 73 131 0.0 0.0 0.00 0.00 0.00 96 1013.4
20260510081559 73 131 0.0 0.0 0.00 0.00 0.00 96 1013.3
20260510080022 73 131 0.0 0.0 0.00 0.00 0.00 96 1013.3
20260510074517 74 130 0.0 1.0 0.00 0.00 0.00 95 1013.2
20260510073050 74 240 0.0 0.0 0.00 0.00 0.00 95 1013.3
20260510071610 74 265 0.0 2.0 0.00 0.00 0.00 95 1013.3
20260510070010 74 281 1.0 4.0 0.00 0.00 0.00 94 1013.3
20260510064524 74 242 2.0 6.0 0.00 0.00 0.00 94 1013.4
20260510063046 75 280 1.0 4.0 0.00 0.00 0.00 93 1013.5
20260510061607 75 251 1.0 3.0 0.00 0.00 0.00 92 1013.7
20260510060032 75 243 2.0 3.0 0.00 0.00 0.00 92 1013.7
20260510054534 75 234 0.0 2.0 0.00 0.00 0.00 92 1013.7
20260510053111 75 280 1.0 2.0 0.00 0.00 0.00 92 1014.0
20260510051511 76 248 0.0 3.0 0.00 0.00 0.00 92 1014.1
20260510050026 76 252 0.0 1.0 0.00 0.00 0.00 91 1014.2
20260510044542 76 242 0.0 0.0 0.00 0.00 0.00 91 1014.2
20260510043111 76 260 0.0 2.0 0.00 0.00 0.00 90 1014.2
20260510041527 77 274 0.0 3.0 0.00 0.00 0.00 90 1014.4
20260510040048 77 281 0.0 1.0 0.00 0.00 0.00 88 1014.4
20260510034609 78 303 1.0 2.0 0.00 0.00 0.00 86 1014.4
20260510033010 78 107 0.0 0.0 0.00 0.00 0.00 86 1014.2
20260510031532 77 124 0.0 5.0 0.00 0.00 0.00 87 1014.1
20260510030048 77 122 2.0 4.0 0.00 0.00 0.00 89 1014.1
20260510024507 77 286 0.0 3.0 0.00 0.00 0.00 89 1013.8
20260510023025 77 285 1.0 5.0 0.00 0.00 0.00 89 1013.8
20260510021641 77 352 0.0 5.0 0.00 0.00 0.00 89 1013.5
20260510014510 77 360 6.0 16.0 0.00 0.00 0.00 88 1013.3
20260510013033 80 297 7.0 19.0 0.00 0.00 0.00 80 1013.1
20260510011554 83 231 4.0 8.0 0.00 0.00 0.00 77 1012.8
20260510010003 82 283 6.0 10.0 0.00 0.00 0.00 82 1012.6
20260510004528 82 135 4.0 11.0 0.00 0.00 0.00 82 1011.6
20260510003050 82 120 6.0 12.0 0.00 0.00 0.00 83 1011.4
20260510001614 82 102 6.0 16.0 0.00 0.00 0.00 82 1011.3
20260510000026 83 131 10.0 15.0 0.00 0.00 0.00 78 1011.2
20260509234555 83 113 8.0 15.0 0.00 0.00 0.00 76 1011.1
20260509233008 83 116 8.0 14.0 0.00 0.00 0.00 76 1010.8
20260509231529 84 129 6.0 16.0 0.00 0.00 0.00 77 1010.8
20260509230050 84 144 6.0 14.0 0.00 0.00 0.00 78 1010.8
20260509224602 84 127 7.0 17.0 0.00 0.00 0.00 80 1010.8
20260509223002 84 89 9.0 18.0 0.00 0.00 0.00 79 1010.8
20260509221522 85 105 12.0 19.0 0.00 0.00 0.00 78 1010.8
20260509220048 85 125 11.0 16.0 0.00 0.00 0.00 77 1010.8
20260509214559 85 106 7.0 17.0 0.00 0.00 0.00 78 1010.8
20260509213116 85 103 10.0 17.0 0.00 0.00 0.00 78 1011.0
20260509211513 85 130 10.0 18.0 0.00 0.00 0.00 81 1010.9
20260509210046 85 101 9.0 18.0 0.00 0.00 0.00 79 1011.0
20260509204610 86 129 10.0 17.0 0.00 0.00 0.00 77 1010.9
20260509203024 86 108 11.0 15.0 0.00 0.00 0.00 76 1011.0
20260509201541 86 94 10.0 15.0 0.00 0.00 0.00 76 1011.2
20260509200100 86 108 8.0 14.0 0.00 0.00 0.00 74 1011.3
20260509194608 85 101 9.0 17.0 0.00 0.00 0.00 76 1011.5
20260509193024 86 142 11.0 17.0 0.00 0.00 0.00 73 1011.4
20260509191537 85 99 10.0 17.0 0.00 0.00 0.00 73 1011.7
20260509190106 86 94 10.0 16.0 0.00 0.00 0.00 73 1011.8
20260509184518 86 115 9.0 15.0 0.00 0.00 0.00 72 1012.0
20260509183037 86 113 11.0 16.0 0.00 0.00 0.00 72 1011.9
20260509181607 86 101 11.0 17.0 0.00 0.00 0.00 72 1012.1
20260509180017 86 77 9.0 15.0 0.00 0.00 0.00 73 1012.2
20260509174530 86 94 10.0 17.0 0.00 0.00 0.00 72 1012.2
20260509173055 88 124 7.0 15.0 0.00 0.00 0.00 70 1012.2
20260509171611 90 86 9.0 12.0 0.00 0.00 0.00 66 1012.4
20260509170025 90 128 5.0 11.0 0.00 0.00 0.00 54 1012.5
20260509164541 90 191 3.0 12.0 0.00 0.00 0.00 53 1012.7
20260509163105 90 170 6.0 13.0 0.00 0.00 0.00 51 1013.0
20260509161510 90 177 3.0 9.0 0.00 0.00 0.00 55 1013.2
20260509160038 89 205 5.0 14.0 0.00 0.00 0.00 55 1013.4
20260509154554 88 182 2.0 10.0 0.00 0.00 0.00 57 1013.6
20260509153003 88 248 4.0 12.0 0.00 0.00 0.00 53 1013.8
20260509151515 88 156 5.0 11.0 0.00 0.00 0.00 52 1013.8